AirNav   Air Wisconsin Up To $57,000 Bonus
 
 1660 users online  

35MN Wipline Airport
Inver Grove Heights, Minnesota, USA

GOING TO INVER GROVE HEIGHTS?


FAA INFORMATION EFFECTIVE 02 JANUARY 2020

Location

FAA Identifier: 35MN
Lat/Long: 44-48-55.8790N 093-00-48.7690W
44-48.931317N 093-00.812817W
44.8155219,-93.0135469
(estimated)
Elevation: 687 ft. / 209 m (estimated)
Variation: 03E (1985)
From city: 2 miles SE of INVER GROVE HEIGHTS, MN
Time zone: UTC -6 (UTC -5 during Daylight Saving Time)
Zip code: 55077

Airport Operations

Airport use: Private use. Permission required prior to landing
Activation date: 02/1978
Control tower: no
ARTCC: MINNEAPOLIS CENTER
FSS: PRINCETON FLIGHT SERVICE STATION
Attendance: UNATNDD
Wind indicator: yes
Segmented circle: no

Airport Communications

WX AWOS-3 at SGS (2.6 nm N): 119.425 (651-457-8120)
WX ASOS at STP (7 nm N): 118.35 (651-312-8888)
WX ASOS at MSP (10 nm NW): 135.35 (612-713-4174)
WX AWOS-3 at 21D (13 nm NE): 120.075 (651-779-5949)
WX AWOS-3 at LVN (15 nm SW): 118.0 (952-469-5850)
WX ASOS at FCM (19 nm W): 124.9 (952-941-4156)

Nearby radio navigation aids

VOR radial/distance  VOR name  Freq  Var
MSPr115/10.7MINNEAPOLIS VOR/DME115.3002E
FGTr027/13.2FARMINGTON VORTAC115.7006E
FCMr091/18.3FLYING CLOUD VOR/DME117.7001E
GEPr136/25.0GOPHER VORTAC117.3006E
FOWr021/39.7HALFWAY VOR/DME111.2002E

 
NDB name  Hdg/Dist  Freq  Var  ID
HOPEY218/4.640003EPPI .--. .--. ..

Airport Services

Runway Information

Runway 3/21

Dimensions: 2300 x 150 ft. / 701 x 46 m
Surface: turf
RUNWAY 3  RUNWAY 21
Traffic pattern: leftleft

Airport Ownership and Management from official FAA records

Ownership: Privately-owned
Owner: ROBERT WIPLINGER
9100 RIVER ROAD
INVER GROVE HTS, MN 55075
Phone (612) 867-6160
Manager: ROBERT WIPLINGER
9100 RIVER ROAD
INVER GROVE HTS, MN 55075
Phone (612) 867-6160
CELL: 612-867-6160

Airport Operational Statistics

Aircraft based on the field: 5
Single engine airplanes: 5
    

Additional Remarks

FOR CD CTC MINNEAPOLIS ARTCC AT 651-463-5588.

Instrument Procedures

There are no published instrument procedures at 35MN.

Some nearby airports with instrument procedures:

KSGS - South St Paul Municipal Airport-Richard E Fleming Field (3 nm N)
KSTP - St Paul Downtown Airport Holman Field (7 nm N)
KMSP - Minneapolis-St Paul International/Wold-Chamberlain Airport (10 nm NW)
21D - Lake Elmo Airport (13 nm NE)
KLVN - Airlake Airport (15 nm SW)
KFCM - Flying Cloud Airport (19 nm W)
 
Loc | Ops | Rwys | IFR | FBO | Links
Com | Nav | Svcs | Stats | Notes
Area around 35MN (Wipline Airport)
 
Road maps at: MapQuest Bing Google
 
Aerial photo
No photo
 
Sectional chart

 
Airport distance calculator
Flying to Wipline Airport? Find the distance to fly.

From to 35MN

Sunrise and sunset
Times for 21-Jan-2020
 Local
(UTC-6)
 Zulu
(UTC)
Morning civil twilight07:1113:11
Sunrise07:4313:43
Sunset17:0423:04
Evening civil twilight17:3623:36

Current date and time
Zulu (UTC)  21-Jan-2020 18:02:35
Local (UTC-6)  21-Jan-2020 12:02:35
 
METAR
KSGS 
6nm W 
211756Z AUTO 17008KT 10SM CLR M10/M15 A3032 RMK AO2 T11051150 11105 21189
KSTP 
7nm N 
211753Z 17012KT 10SM CLR M11/M15 A3033 RMK AO2 SLP284 T11061150 11106 21183 58029
KMSP 
10nm NW 
211753Z 17009KT 10SM BKN250 M09/M14 A3030 RMK AO2 SLP280 4/008 T10941144 11094 21172 58027
K21D 
13nm NE 
211756Z AUTO 10SM CLR M10/M14 A3031 RMK AO2
KLVN 
15nm SW 
211655Z AUTO 19008KT 10SM CLR M11/M14 A3034 RMK AO2
KFCM 
19nm W 
211753Z 20015KT 10SM CLR M10/M15 A3028 RMK AO2 SLP276 T11001150 11100 21189 58025
TAF
KMSP 
10nm NW 
211504Z 2115/2218 17011KT P6SM SCT250 FM212000 18014G22KT P6SM BKN250 WS020/22045KT FM220600 18011KT P6SM OVC050 FM220800 17010KT P6SM VCSH OVC035 FM221200 17009KT 6SM BR OVC015
NOTAMs
Click for the latest NOTAMs
NOTAMs are issued by the DoD/FAA and will open in a separate window not controlled by AirNav.

 

 
 

Would you like to see your business listed on this page?

 If your business provides an interesting product or service to pilots, flight crews, aircraft, or users of the Wipline Airport, you should consider listing it here.  To start the listing process, click on the button below
 
Add a business
 

Other Pages about Wipline Airport

Update a link
 
Copyright © AirNav, LLC. All rights reserved. Privacy Policy  Contact